TimePST,TemperatureF,Dew PointF,Humidity,Sea Level PressureIn,VisibilityMPH,Wind Direction,Wind SpeedMPH,Gust SpeedMPH,PrecipitationIn,Events,Conditions,WindDirDegrees,DateUTC
12:55 AM,41.0,36.0,82,30.22,10.0,NE,9.2,-,N/A,,Clear,50,2014-01-17 08:55:00
1:55 AM,41.0,36.0,82,30.22,10.0,ENE,10.4,-,N/A,,Clear,60,2014-01-17 09:55:00
2:55 AM,39.9,35.1,83,30.21,10.0,East,8.1,-,N/A,,Clear,90,2014-01-17 10:55:00
3:55 AM,41.0,36.0,82,30.19,10.0,East,12.7,-,N/A,,Clear,80,2014-01-17 11:55:00
4:55 AM,39.9,35.1,83,30.18,10.0,ENE,8.1,-,N/A,,Clear,60,2014-01-17 12:55:00
5:55 AM,39.9,35.1,83,30.16,10.0,ENE,13.8,-,N/A,,Clear,60,2014-01-17 13:55:00
6:55 AM,39.0,35.1,86,30.15,10.0,ENE,12.7,-,N/A,,Clear,70,2014-01-17 14:55:00
7:55 AM,39.0,35.1,86,30.15,10.0,NE,15.0,-,N/A,,Clear,50,2014-01-17 15:55:00
8:55 AM,42.1,35.1,76,30.16,10.0,NE,17.3,-,N/A,,Clear,50,2014-01-17 16:55:00
9:55 AM,45.0,36.0,71,30.16,10.0,ENE,15.0,-,N/A,,Clear,60,2014-01-17 17:55:00
10:55 AM,46.0,36.0,68,30.16,10.0,ENE,11.5,-,N/A,,Clear,60,2014-01-17 18:55:00
11:55 AM,51.1,37.0,59,30.14,10.0,East,5.8,-,N/A,,Clear,80,2014-01-17 19:55:00
12:55 PM,52.0,37.0,57,30.12,10.0,ENE,4.6,-,N/A,,Clear,70,2014-01-17 20:55:00
1:55 PM,54.0,37.9,55,30.12,10.0,East,4.6,-,N/A,,Clear,80,2014-01-17 21:55:00
2:55 PM,50.0,39.0,66,30.12,10.0,North,3.5,-,N/A,,Clear,10,2014-01-17 22:55:00
3:55 PM,51.1,39.0,63,30.13,10.0,Calm,Calm,-,N/A,,Clear,0,2014-01-17 23:55:00
4:55 PM,46.9,37.9,71,30.13,10.0,East,4.6,-,N/A,,Clear,100,2014-01-18 00:55:00
5:55 PM,42.1,35.1,76,30.14,10.0,Calm,Calm,-,N/A,,Clear,0,2014-01-18 01:55:00
6:55 PM,39.9,34.0,79,30.14,10.0,East,4.6,-,N/A,,Clear,80,2014-01-18 02:55:00
7:55 PM,39.0,34.0,82,30.14,10.0,ESE,3.5,-,N/A,,Clear,110,2014-01-18 03:55:00
8:55 PM,39.0,35.1,86,30.14,10.0,Variable,5.8,-,N/A,,Clear,0,2014-01-18 04:55:00
9:55 PM,39.0,34.0,82,30.14,10.0,East,6.9,-,N/A,,Clear,90,2014-01-18 05:55:00
10:55 PM,39.0,33.1,79,30.15,10.0,ESE,5.8,-,N/A,,Clear,110,2014-01-18 06:55:00
11:55 PM,37.9,33.1,83,30.15,10.0,SE,4.6,-,N/A,,Clear,130,2014-01-18 07:55:00